Вернуться в каталог

STARLINK-2047

АктивенСвязьVLEO
NORAD 47355·PAYLOAD·🇺🇸 United States

Запущен Jan 20, 2021 с Cape Canaveral Space Force Station

Loading…

Ближайшие Пролёты (ближайшие 24 часа)

TLE

СвежийSource: CelesTrak SupGP

Эпоха: Sep 15, 2026, 01:08 UTC

1 47355C 21005G   26258.04770833 -.00026905  00000+0 -86528-3 0  2580
2 47355  53.1592 209.7610 0001430  88.1825 269.3757 15.31711964    14

Отслеживайте STARLINK-2047 в реальном времени с AllMySat

Download on the App Store